TimeCST,TemperatureF,Dew PointF,Humidity,Sea Level PressureIn,VisibilityMPH,Wind Direction,Wind SpeedMPH,Gust SpeedMPH,PrecipitationIn,Events,Conditions,WindDirDegrees,DateUTC
12:15 AM,39.2,30.2,70,29.85,10.0,NNW,5.8,-,N/A,,Clear,340,2012-12-24 06:15:00
12:55 AM,37.4,30.2,75,29.84,10.0,NNW,4.6,-,N/A,,Clear,330,2012-12-24 06:55:00
1:15 AM,37.4,30.2,75,29.86,10.0,NNW,6.9,-,N/A,,Clear,330,2012-12-24 07:15:00
1:35 AM,37.4,28.4,70,29.87,10.0,NNW,9.2,-,N/A,,Clear,330,2012-12-24 07:35:00
1:55 AM,35.6,28.4,75,29.89,10.0,NNW,11.5,-,N/A,,Clear,330,2012-12-24 07:55:00
2:15 AM,35.6,26.6,70,29.88,10.0,North,6.9,-,N/A,,Clear,350,2012-12-24 08:15:00
2:35 AM,33.8,26.6,75,29.87,10.0,North,5.8,-,N/A,,Clear,360,2012-12-24 08:35:00
2:55 AM,33.8,26.6,75,29.86,9.0,NNW,4.6,-,N/A,,Clear,340,2012-12-24 08:55:00
3:15 AM,33.8,26.6,75,29.88,9.0,NNW,5.8,-,N/A,,Clear,340,2012-12-24 09:15:00
3:35 AM,32.0,26.6,80,29.89,8.0,NNW,6.9,-,N/A,,Clear,340,2012-12-24 09:35:00
3:55 AM,32.0,26.6,80,29.89,7.0,North,6.9,-,N/A,,Clear,350,2012-12-24 09:55:00
4:15 AM,30.2,26.6,86,29.89,7.0,North,9.2,-,N/A,,Clear,350,2012-12-24 10:15:00
4:55 AM,30.2,24.8,80,29.93,5.0,NW,8.1,-,N/A,,Clear,310,2012-12-24 10:55:00
5:15 AM,28.4,23.0,80,29.92,5.0,NNE,6.9,-,N/A,,Clear,20,2012-12-24 11:15:00
5:35 AM,28.4,24.8,86,29.93,5.0,NNW,9.2,-,N/A,,Clear,340,2012-12-24 11:35:00
5:55 AM,28.4,23.0,80,29.94,5.0,North,6.9,-,N/A,,Clear,350,2012-12-24 11:55:00
6:15 AM,28.4,23.0,80,29.94,5.0,North,10.4,-,N/A,,Clear,350,2012-12-24 12:15:00
6:55 AM,26.6,21.2,80,29.99,5.0,NNW,8.1,-,N/A,,Overcast,330,2012-12-24 12:55:00
7:15 AM,26.6,21.2,80,29.99,5.0,North,5.8,-,N/A,,Mostly Cloudy,360,2012-12-24 13:15:00
7:35 AM,26.6,21.2,80,29.99,4.0,North,6.9,-,N/A,,Scattered Clouds,360,2012-12-24 13:35:00
7:55 AM,26.6,21.2,80,30.00,4.0,North,5.8,-,N/A,,Clear,350,2012-12-24 13:55:00
8:35 AM,26.6,21.2,80,30.00,4.0,North,6.9,-,N/A,,Clear,10,2012-12-24 14:35:00
8:55 AM,26.6,21.2,80,30.00,5.0,NNE,6.9,-,N/A,,Clear,30,2012-12-24 14:55:00
9:15 AM,28.4,21.2,74,30.00,5.0,NE,5.8,-,N/A,,Clear,40,2012-12-24 15:15:00
9:35 AM,28.4,21.2,74,30.01,6.0,NNE,5.8,-,N/A,,Clear,30,2012-12-24 15:35:00
9:55 AM,28.4,21.2,74,30.00,6.0,NNE,5.8,-,N/A,,Clear,30,2012-12-24 15:55:00
10:15 AM,30.2,23.0,75,29.99,6.0,NE,8.1,-,N/A,,Clear,40,2012-12-24 16:15:00
10:55 AM,30.2,21.2,69,30.00,7.0,NE,3.5,-,N/A,,Clear,40,2012-12-24 16:55:00
11:15 AM,33.8,23.0,65,30.01,8.0,NNW,5.8,-,N/A,,Clear,330,2012-12-24 17:15:00
11:35 AM,33.8,23.0,65,29.98,9.0,North,4.6,-,N/A,,Clear,10,2012-12-24 17:35:00
11:55 AM,33.8,23.0,65,29.97,9.0,Calm,Calm,-,N/A,,Clear,0,2012-12-24 17:55:00
12:15 PM,35.6,23.0,60,29.96,10.0,North,6.9,-,N/A,,Clear,10,2012-12-24 18:15:00
12:35 PM,35.6,23.0,60,29.96,10.0,NNE,4.6,-,N/A,,Clear,20,2012-12-24 18:35:00
12:55 PM,37.4,23.0,56,29.95,10.0,North,4.6,-,N/A,,Clear,10,2012-12-24 18:55:00
1:15 PM,37.4,24.8,60,29.93,10.0,NE,3.5,-,N/A,,Clear,50,2012-12-24 19:15:00
1:35 PM,39.2,24.8,56,29.95,10.0,Calm,Calm,-,N/A,,Clear,0,2012-12-24 19:35:00
2:15 PM,41.0,24.8,53,29.94,10.0,NNE,4.6,-,N/A,,Clear,20,2012-12-24 20:15:00
2:35 PM,41.0,24.8,53,29.94,10.0,North,8.1,-,N/A,,Clear,350,2012-12-24 20:35:00
3:15 PM,41.0,24.8,53,29.95,10.0,North,9.2,-,N/A,,Clear,10,2012-12-24 21:15:00
3:35 PM,41.0,24.8,53,29.95,10.0,North,10.4,-,N/A,,Clear,350,2012-12-24 21:35:00
3:55 PM,39.2,24.8,56,29.96,10.0,North,10.4,-,N/A,,Clear,360,2012-12-24 21:55:00
4:35 PM,37.4,24.8,60,29.96,9.0,North,11.5,-,N/A,,Clear,360,2012-12-24 22:35:00
5:15 PM,35.6,24.8,65,29.95,9.0,NNE,9.2,-,N/A,,Clear,30,2012-12-24 23:15:00
5:35 PM,35.6,24.8,65,29.96,10.0,NNE,8.1,-,N/A,,Clear,30,2012-12-24 23:35:00
6:15 PM,33.8,24.8,70,29.96,10.0,NE,6.9,-,N/A,,Clear,40,2012-12-25 00:15:00
6:55 PM,33.8,24.8,70,29.97,8.0,NNE,10.4,-,N/A,,Clear,30,2012-12-25 00:55:00
7:15 PM,33.8,24.8,70,29.96,8.0,NE,11.5,-,N/A,,Clear,50,2012-12-25 01:15:00
7:35 PM,32.0,23.0,69,29.95,8.0,NE,10.4,-,N/A,,Clear,50,2012-12-25 01:35:00
7:55 PM,32.0,23.0,69,29.94,8.0,NE,10.4,-,N/A,,Clear,50,2012-12-25 01:55:00
8:35 PM,30.2,23.0,75,29.94,8.0,NE,9.2,-,N/A,,Clear,40,2012-12-25 02:35:00
8:55 PM,30.2,23.0,75,29.96,8.0,NE,8.1,-,N/A,,Clear,50,2012-12-25 02:55:00
9:15 PM,30.2,23.0,75,29.95,8.0,NE,8.1,-,N/A,,Clear,50,2012-12-25 03:15:00
10:15 PM,30.2,23.0,75,29.95,8.0,NE,8.1,-,N/A,,Clear,50,2012-12-25 04:15:00
10:35 PM,30.2,23.0,75,29.96,7.0,NE,8.1,-,N/A,,Clear,50,2012-12-25 04:35:00
10:55 PM,30.2,23.0,75,29.94,7.0,ENE,9.2,-,N/A,,Clear,60,2012-12-25 04:55:00
11:15 PM,30.2,23.0,75,29.94,7.0,ENE,10.4,-,N/A,,Clear,60,2012-12-25 05:15:00
11:55 PM,30.2,21.2,69,29.94,7.0,ENE,8.1,-,N/A,,Clear,60,2012-12-25 05:55:00